User: anonymous   Login
Location: Unspecified
(0.0000°N, 0.0000°E)
Time: 11:03:26
(UTC+00:00)
Language:

Feng Yun - Orbit

View from above orbital plane
View from above orbital plane
View from above satellite
View from above satellite

Ground track
Ground track

The orbit data is extracted from the following two-line orbital elements,

1 24834U 97029A   17350.99875306 -.00000079  00000-0  00000+0 0  9997
2 24834  13.8752  29.2097 0099876 164.6012 341.1783  0.96050272 73577
Epoch (UTC): 16 December 2017 23:58:12
Eccentricity: 0.0099876
inclination: 13.8752°
perigee height: 36579 km
apogee height: 37446 km
right ascension of ascending node: 29.2097°
argument of perigee: 164.6012°
revolutions per day: 0.96050272
mean anomaly at epoch: 341.1783°
orbit number at epoch: 7357

The dashed part of the orbit path shows where the satellite is in the earth's shadow,  

DLR